TimeAKDT,TemperatureF,Dew PointF,Humidity,Sea Level PressureIn,VisibilityMPH,Wind Direction,Wind SpeedMPH,Gust SpeedMPH,PrecipitationIn,Events,Conditions,WindDirDegrees,DateUTC
12:53 AM,19.9,6.1,55,30.41,10.0,North,16.1,20.7,N/A,,Clear,10,2012-10-21 08:53:00
2:53 AM,18.0,6.1,60,30.41,10.0,NE,8.1,18.4,N/A,,Clear,40,2012-10-21 10:53:00
3:53 AM,10.0,1.9,70,30.44,10.0,Calm,Calm,-,N/A,,Clear,0,2012-10-21 11:53:00
4:53 AM,3.0,-2.0,80,30.46,10.0,NE,3.5,-,N/A,,Clear,40,2012-10-21 12:53:00
5:53 AM,-0.0,-4.0,83,30.48,10.0,NNE,4.6,-,N/A,,Clear,20,2012-10-21 13:53:00
6:15 AM,-0.4,-4.0,85,30.33,10.0,NNE,3.5,-,N/A,,Clear,20,2012-10-21 14:15:00
6:53 AM,-0.9,-5.1,83,30.49,10.0,Calm,Calm,-,N/A,,Clear,0,2012-10-21 14:53:00
7:53 AM,-4.0,-8.0,83,30.50,10.0,North,4.6,-,N/A,,Clear,10,2012-10-21 15:53:00
8:53 AM,-4.0,-9.0,79,30.51,10.0,Calm,Calm,-,N/A,,Partly Cloudy,0,2012-10-21 16:53:00
9:53 AM,1.0,-5.1,75,30.51,10.0,Calm,Calm,-,N/A,,Partly Cloudy,0,2012-10-21 17:53:00
10:53 AM,12.0,3.9,70,30.49,10.0,Calm,Calm,-,N/A,,Clear,0,2012-10-21 18:53:00
11:53 AM,12.0,3.9,70,30.49,10.0,Calm,Calm,-,N/A,,Clear,0,2012-10-21 19:53:00
12:53 PM,14.0,3.9,64,30.48,10.0,ESE,3.5,-,N/A,,Clear,110,2012-10-21 20:53:00
1:53 PM,17.1,5.0,59,30.47,10.0,Calm,Calm,-,N/A,,Clear,0,2012-10-21 21:53:00
2:53 PM,19.9,5.0,52,30.45,10.0,Calm,Calm,-,N/A,,Clear,0,2012-10-21 22:53:00
3:53 PM,19.9,5.0,52,30.46,10.0,South,3.5,-,N/A,,Clear,190,2012-10-21 23:53:00
4:53 PM,19.9,5.0,52,30.46,10.0,Calm,Calm,-,N/A,,Clear,0,2012-10-22 00:53:00
5:53 PM,15.1,3.9,61,30.46,10.0,Calm,Calm,-,N/A,,Clear,0,2012-10-22 01:53:00
6:53 PM,7.0,-0.0,73,30.48,10.0,Calm,Calm,-,N/A,,Clear,0,2012-10-22 02:53:00
7:53 PM,3.0,-2.0,80,30.49,10.0,Calm,Calm,-,N/A,,Clear,0,2012-10-22 03:53:00
8:53 PM,-0.0,-4.0,83,30.49,10.0,Calm,Calm,-,N/A,,Clear,0,2012-10-22 04:53:00
9:25 PM,-0.4,-5.8,78,30.29,10.0,Calm,Calm,-,N/A,,Clear,0,2012-10-22 05:25:00
9:53 PM,-2.0,-7.1,79,30.49,10.0,Calm,Calm,-,N/A,,Clear,0,2012-10-22 05:53:00
10:53 PM,-4.0,-9.0,79,30.46,10.0,Calm,Calm,-,N/A,,Clear,0,2012-10-22 06:53:00
11:53 PM,-6.0,-11.0,79,30.47,10.0,Calm,Calm,-,N/A,,Clear,0,2012-10-22 07:53:00